Weather History for KRST - February, 2014

Change the Weather History Date:

Tuesday, February 25, 2014

  Actual Average Record
Temperature  
Mean Temperature -1 °F 24 °F  
Max Temperature 6 °F 31 °F 58 °F (2000)
Min Temperature -9 °F 16 °F -28 °F (1940)
Degree Days  
Heating Degree Days 66 41  
Month to date heating degree days 1425 1131  
Since 1 July heating degree days 6522 5739  
Cooling Degree Days 0 0  
Month to date cooling degree days 0 0  
Year to date cooling degree days 0 0  
Moisture  
Dew Point -9 °F    
Average Humidity 75    
Maximum Humidity 87    
Minimum Humidity 62    
Precipitation  
Precipitation T in 0.03 in 1.09 in (1951)
Month to date precipitation 1.52 0.71  
Year to date precipitation 2.52 1.57  
Snow  
Snow T in 0.30 in 7.60 in (2007)
Month to date snowfall 17.2 7.6  
Since 1 July snowfall 46.4 39.0  
Snow Depth 21.00 in    
Sea Level Pressure  
Sea Level Pressure 30.35 in    
Wind  
Wind Speed 16 mph (WNW)    
Max Wind Speed 26 mph    
Max Gust Speed 31 mph    
Visibility 9 miles    
Events Snow    
T = Trace of Precipitation, MM = Missing Value Source: NWS Daily Summary

Daily Weather History Graph

Daily Weather History Graph

Search for Another Location

Airport or City:

Trip Planner

Search our weather history database for the weather conditions in past years. The results will help you decide how hot, cold, wet, or windy it might be!

Date:

Astronomy

Feb. 25, 2014 Rise Set
Actual Time 6:53 AM CST 5:53 PM CST
Civil Twilight 6:24 AM CST 6:22 PM CST
Nautical Twilight 5:50 AM CST 6:55 PM CST
Astronomical Twilight 5:17 AM CST 7:29 PM CST
Moon 3:54 AM CST (2/25) 1:54 PM CST (2/25)
Length of Visible Light 11h 58m
Length of Day
10h 59m
Waning Crescent, 18% of the Moon is Illuminated
Feb 25
Waning Crescent
Mar 1
New
Mar 8
First Quarter
Mar 16
Full
Mar 23
Last Quarter

Hourly Weather History & Observations

Time (CST) Temp. Windchill Dew Point Humidity Pressure Visibility Wind Dir Wind Speed Gust Speed Precip Events Conditions
12:24 AM 6.1 °F -8.7 °F -0.0 °F 76% 30.25 in 3.0 mi WNW 10.4 mph - 0.00 in Snow Light Snow
12:50 AM 3.2 °F -12.2 °F -0.4 °F 85% 30.25 in 10.0 mi WNW 10.4 mph - 0.00 in   Scattered Clouds
12:54 AM 3.9 °F -11.3 °F -2.0 °F 76% 30.35 in 10.0 mi WNW 10.4 mph - 0.00 in   Scattered Clouds
1:54 AM 1.9 °F -16.9 °F -2.9 °F 80% 30.36 in 10.0 mi WNW 15.0 mph - N/A   Partly Cloudy
2:54 AM -0.0 °F -20.7 °F -5.1 °F 79% 30.35 in 9.0 mi NW 17.3 mph - N/A   Mostly Cloudy
3:54 AM -2.0 °F -23.9 °F -9.0 °F 72% 30.36 in 10.0 mi NW 18.4 mph - N/A   Clear
4:54 AM -4.0 °F -25.8 °F -11.0 °F 72% 30.37 in 10.0 mi NW 17.3 mph - N/A   Clear
5:54 AM -7.1 °F -26.8 °F -11.9 °F 79% 30.37 in 10.0 mi NW 12.7 mph - N/A   Clear
6:54 AM -8.0 °F -22.5 °F -13.0 °F 79% 30.38 in 10.0 mi West 6.9 mph - N/A   Clear
7:54 AM -7.1 °F -22.8 °F -14.1 °F 72% 30.36 in 10.0 mi WNW 8.1 mph - N/A   Clear
8:54 AM -4.0 °F -21.2 °F -11.9 °F 69% 30.36 in 10.0 mi West 10.4 mph - N/A   Clear
9:54 AM -2.9 °F -22.4 °F -11.0 °F 68% 30.37 in 10.0 mi West 13.8 mph - N/A   Clear
10:54 AM -0.9 °F -21.9 °F -9.9 °F 66% 30.38 in 10.0 mi West 17.3 mph - N/A   Clear
11:54 AM -0.0 °F -21.3 °F -9.0 °F 66% 30.37 in 10.0 mi West 18.4 mph - N/A   Clear
12:54 PM 1.9 °F -18.1 °F -8.0 °F 63% 30.34 in 10.0 mi WNW 17.3 mph - N/A   Clear
1:54 PM 3.0 °F -17.3 °F -8.0 °F 60% 30.32 in 9.0 mi WNW 18.4 mph - N/A   Clear
2:54 PM 3.9 °F -16.1 °F -7.1 °F 60% 30.30 in 9.0 mi WNW 18.4 mph 27.6 mph N/A   Clear
3:54 PM 3.0 °F -19.7 °F -6.0 °F 66% 30.30 in 6.0 mi NW 24.2 mph 31.1 mph N/A   Haze
4:54 PM 1.9 °F -19.8 °F -7.1 °F 66% 30.31 in 6.0 mi NW 20.7 mph - N/A   Haze
5:54 PM -0.0 °F -19.4 °F -8.0 °F 69% 30.33 in 10.0 mi NW 15.0 mph - N/A   Clear
6:54 PM -2.0 °F -23.9 °F -9.9 °F 69% 30.35 in 10.0 mi NW 18.4 mph - N/A   Clear
7:54 PM -4.0 °F -25.8 °F -11.9 °F 69% 30.37 in 10.0 mi NW 17.3 mph - N/A   Clear
8:54 PM -5.1 °F -27.2 °F -13.0 °F 69% 30.38 in 10.0 mi WNW 17.3 mph - N/A   Clear
9:54 PM -6.0 °F -29.0 °F -14.1 °F 68% 30.40 in 10.0 mi WNW 18.4 mph - N/A   Clear
10:54 PM -8.0 °F -30.3 °F -15.0 °F 71% 30.40 in 10.0 mi NW 16.1 mph - N/A   Clear
11:54 PM -9.0 °F -31.7 °F -17.0 °F 68% 30.39 in 10.0 mi WNW 16.1 mph - N/A   Clear